Regional Weather Roundup
Issued by NWS

Home | Current Version | Previous Version | Graphics & Text | Print | Product List | Glossary On
Versions: 1 2 3 4 5 6 7 8 9 10 11 12 13 14 15 16 17 18 19 20 21 22 23 24 25 26 27 28 29 30 31 32 33 34 35 36 37 38 39 40 41 42 43 44 45 46 47 48 49 50
000
ASUS43 KMPX 190401
RWRMN
WEATHER ROUNDUP FOR MINNESOTA
NATIONAL WEATHER SERVICE TWIN CITIES/CHANHASSEN MN
1000 PM CST WED JAN 18 2017


NOTE: "FAIR" INDICATES FEW OR NO CLOUDS BELOW 12,000 FEET WITH NO
SIGNIFICANT WEATHER AND/OR OBSTRUCTIONS TO VISIBILITY. N/A MEANS
CURRENT SKY AND/OR WEATHER CONDITIONS ARE NOT AVAILABLE.

MNZ060>063-068>070-190500-
   Twin Cities Metro

CITY           SKY/WX    TMP DP  RH WIND       PRES   REMARKS
TWIN CITIES    CLOUDY    32  29  88 SE6       29.84S WCI  26
ST PAUL        CLOUDY    31  31 100 SE6       29.85F FOG     WCI  25
CRYSTAL        FOG       30  26  85 CALM      29.82F VSB 1/2
BLAINE         CLOUDY    34  34 100 SE3       29.83S FOG
LAKEVILLE      CLOUDY    32  32 100 S6        29.83F WCI  26
EDEN PRAIRIE   CLOUDY    36  32  85 S6        29.82S
SOUTH ST PAUL  CLOUDY    32  31  96 CALM      29.85S FOG
LAKE ELMO      FAIR      32  32 100 SE5       29.85F FOG     WCI  27
$$
MNZ001>005-007-008-013>017-022>024-027-028-190500-
   Northwest Minnesota

CITY           SKY/WX    TMP DP  RH WIND       PRES   REMARKS
BEMIDJI        CLOUDY    30  23  75 SE7       29.71F WCI  23
HALLOCK        CLOUDY    27  23  86 S17       29.61S WCI  14
ROSEAU         CLOUDY    30  25  80 S14       29.63F WCI  20
WARROAD        CLOUDY    30  25  80 S6        29.64F WCI  24
THIEF RVR FALL CLOUDY    28  22  78 S14       29.66F WCI  17
CROOKSTON      CLOUDY    30  25  80 S18       29.67F WCI  18
FOSSTON        CLOUDY    28  21  74 S12       29.68F WCI  18
DETROIT LAKES  CLOUDY    30  25  80 S8        29.73S WCI  23
MOORHEAD       CLOUDY    28  23  80 S13       29.71F WCI  18
PARK RAPIDS    CLOUDY    27  20  75 SE8       29.72F WCI  19
MAHNOMEN       FAIR      28  21  77 S6        29.69F WCI  21
$$
MNZ006-009>011-018-025>026-190500-
   North Central Minnesota

CITY           SKY/WX    TMP DP  RH WIND       PRES   REMARKS
BAUDETTE       CLOUDY    31  23  72 S3        29.66F
FLAG ISLAND    CLOUDY    19  16  86 S10       29.63F WCI   8
INTL FALLS     CLOUDY    32  23  69 S5        29.69F WCI  27
WASKISH        CLOUDY    34  27  75 S5        29.70F WCI  30
BIG FORK       CLOUDY    32  25  74 S7        29.74S WCI  26
LONGVILLE      CLOUDY    28  25  86 SE5       29.75F WCI  23
GRAND RAPIDS   CLOUDY    30  25  81 S9        29.77F WCI  22
CRANE LAKE     CLOUDY    18  16  93 S3        29.76F
ORR            CLOUDY    30  21  69 CALM      29.72F
COOK           CLOUDY    32  25  74 S3        29.75F
WALKER         FAIR      32  24  74 S7        29.73S WCI  25
$$
MNZ012-019>021-037-190500-
   Northeast Minnesota

CITY           SKY/WX    TMP DP  RH WIND       PRES   REMARKS
DULUTH         CLOUDY    34  27  75 SW10      29.78F WCI  26
ELY            CLOUDY    28  23  80 CALM      29.76S
HIBBING        CLOUDY    23  22  96 SE3       29.76F
EVELETH        CLOUDY    25  22  89 CALM      29.78S
DULUTH HARBOR  CLOUDY    34  28  80 CALM      29.82F
TWO HARBORS    CLOUDY    34  27  75 CALM      29.78S
SILVER BAY     CLOUDY    27  25  93 CALM      29.77F
GRAND MARAIS     N/A     28  26  92 NW3       29.80S
G MARAIS ARPRT CLOUDY    25  19  80 CALM      29.77S
$$
MNZ029>031-032-039>041-046>048-054>057-064-190500-
   West Central Minnesota

CITY           SKY/WX    TMP DP  RH WIND       PRES   REMARKS
FERGUS FALLS   CLOUDY    30  27  86 SE10      29.77F WCI  21
WHEATON        CLOUDY    34  30  86 SE8       29.75S WCI  27
MORRIS         CLOUDY    27  27 100 SE7       29.74S WCI  19
ALEXANDRIA     CLOUDY    27  26  96 S6        29.76S WCI  20
ELBOW LAKE     FAIR      29  27  92 E8        29.74S WCI  21
WADENA         CLOUDY    25  23  93 SE5       29.73F WCI  19
GLENWOOD       CLOUDY    28  28 100 S6        29.76F WCI  22
APPLETON       CLOUDY    28  27  93 SE7       29.75F WCI  21
ORTONVILLE     CLOUDY    28  25  86 CALM      29.72F
MADISON        CLOUDY    27  27 100 E3        29.74F FOG
WILLMAR        FAIR      27  27 100 SE5       29.78F FOG     WCI  21
$$
MNZ033>034-036-042>043-049>051-058-059-190500-
   Central Minnesota

CITY           SKY/WX    TMP DP  RH WIND       PRES   REMARKS
ST CLOUD       CLOUDY    28  28 100 SE6       29.80S FOG     WCI  22
SAUK CENTRE    FAIR      28  28  99 SE5       29.77F FOG     WCI  23
PAYNESVILLE    CLOUDY    29  29 100 CALM      29.79S FOG
AITKIN         CLOUDY    32  27  80 S5        29.77S WCI  27
PINE RIVER     CLOUDY    27  23  86 SE5       29.79F WCI  21
BRAINERD       CLEAR     28  27  96 S7        29.77F FOG     WCI  21
STAPLES        CLOUDY    27  25  93 SE3       29.75F
LONG PRAIRIE   FAIR      27  27 100 SE6       29.77S FOG     WCI  20
LITTLE FALLS   CLEAR     30  28  93 SE3       29.79S FOG
LITCHFIELD     CLOUDY    34  32  93 CALM      29.79F FOG
BUFFALO          N/A     30  28  95 CALM      29.82S FOG
MAPLE LAKE     FOG       27  26  98 CALM      29.82S VSB 1/4
HUTCHINSON     CLOUDY    33  33  99 S3        29.80F FOG
$$
MNZ037-044-045-052-053-190500-
   East Central Minnesota

CITY           SKY/WX    TMP DP  RH WIND       PRES   REMARKS
PRINCETON      CLOUDY    30  28  93 SE5       29.81F FOG     WCI  25
MORA           CLOUDY    27  25  93 CALM      29.83S FOG
CAMBRIDGE      CLOUDY    34  27  75 S6        29.80F HAZE    WCI  29
RUSH CITY      CLOUDY    30  28  93 S6        29.83S FOG     WCI  24
MOOSE LAKE     CLOUDY    30  27  86 CALM      29.79F
HINCKLEY       FAIR      30  30 100 S3        29.83R FOG
CLOQUET        CLOUDY    32  27  80 S3        29.79S
MCGREGOR       CLOUDY    28  27  93 SE3       29.79S
$$
MNZ071>073-080-081-089-090-097-098-190500-
   Southwest Minnesota

CITY           SKY/WX    TMP DP  RH WIND       PRES   REMARKS
MONTEVIDEO     CLOUDY    28  28 100 S7        29.77F FOG     WCI  21
GRANITE FALLS  CLOUDY    33  32  96 SE8       29.77F WCI  26
CANBY          CLOUDY    42  37  83 SW12G18   29.73S
MARSHALL       CLOUDY    39  35  86 S17       29.74F
REDWOOD FALLS  CLOUDY    33  30  88 S7        29.77F WCI  27
OLIVIA         CLOUDY    32  30  93 SE7       29.77S FOG     WCI  26
PIPESTONE      CLEAR     37  36  93 S15       29.75S
WINDOM           N/A     39  36  87 S12G17    29.79S
WORTHINGTON    CLEAR     38  35  89 S16       29.79F
JACKSON        CLEAR     34  32  93 S12       29.82S WCI  25
TRACY          CLEAR     41  37  87 SW21      29.75S
SLAYTON        CLEAR     36  35  94 S14       29.77S
$$
MNZ065>067-074>077-082>085-091>093-190500-
   South Central Minnesota

CITY           SKY/WX    TMP DP  RH WIND       PRES   REMARKS
MANKATO        CLEAR     37  34  89 S13       29.83F
NEW ULM        CLEAR     34  34 100 S10       29.80F WCI  26
ST JAMES       CLEAR     36  34  93 S9        29.82S
FAIRMONT       CLEAR     36  33  89 S13       29.84S
GLENCOE        CLOUDY    36  36  99 S7        29.80S
FARIBAULT      CLEAR     34  32  93 S7        29.85S WCI  28
OWATONNA         N/A     36  32  87 S14       29.85S
WASECA         CLEAR     36  32  87 S16       29.86S
ALBERT LEA     CLEAR     36  34  93 S9        29.86F
$$
MNZ078>079-086>088-094>096-190500-
   Southeast Minnesota

CITY           SKY/WX    TMP DP  RH WIND       PRES   REMARKS
ROCHESTER      CLEAR     32  32 100 S16       29.88S WCI  21
RED WING       CLOUDY    32  28  86 SE3       29.86F FOG
STANTON        CLOUDY    37  32  85 S12       29.83S
DODGE CENTER   CLEAR     34  32  93 S15       29.86S WCI  24
WINONA         CLOUDY    34  32  93 S3        29.92S
AUSTIN         CLEAR     32  30  93 S8        29.88F FOG     WCI  25
PRESTON        CLOUDY    32  32  99 S17       29.90F FOG     WCI  21
$$
ABBREVIATIONS USED IN REMARKS
   TC - TEMPERATURES IN CELSIUS
  WCI - WIND CHILL INDEX
   HX - HEAT INDEX
  VSB - VISIBILITY
$$




USA.gov is the U.S. government's official web portal to all federal, state and local government web resources and services.